Temperature
7 7 7 7 8 8 7 7 7 8 8 9 8 8 8 8 8 9 9 9 9 9 9 10 10 10 10 9 9 8 8 8 8 8 8 9 9 8 8 8 7 7 6 6
6 7 7 7 8 8 7 7 7 7 7 8 8 8 7 7 7 7 7 8 8 8 9 9 9 9 9 9 8 8 8 8 8 8 8 8 8 7 7 7 6 6 5 4
5 7 7 6 7 7 7 7 7 7 7 7 6 6 6 6 6 6 6 7 7 7 8 8 8 9 9 9 8 8 8 8 7 7 8 7 7 7 6 6 5 5 4 3
5 6 5 6 7 7 6 5 5 5 5 5 5 5 5 5 5 5 6 6 7 7 7 8 8 8 8 8 8 8 7 7 7 7 7 7 6 6 5 5 4 4 3 2
4 4 5 6 6 6 6 4 4 4 4 4 5 5 4 5 5 5 5 5 6 6 7 7 7 8 8 8 8 7 7 7 7 7 6 6 6 5 5 4 3 3 2 1
4 5 5 6 6 6 6 4 3 3 3 3 4 4 4 4 4 4 5 5 5 6 6 7 7 7 7 7 7 7 7 7 7 6 6 5 5 4 4 3 2 2 1 1
4 4 4 5 5 6 5 4 3 3 2 2 2 2 3 3 3 3 4 4 5 5 5 6 6 6 6 6 6 6 6 6 6 5 5 4 4 3 3 2 1 1 1 0
3 4 4 4 4 4 3 2 2 2 2 1 1 2 2 2 2 2 3 3 4 4 4 5 5 5 5 6 6 5 5 5 5 5 4 4 3 3 2 1 1 0 -0 -0
3 3 2 2 2 2 2 2 1 1 1 1 1 1 1 1 1 1 1 2 2 2 3 4 4 4 4 5 5 5 5 4 4 4 3 3 2 2 1 1 1 0 -0 -0
2 2 2 2 2 2 1 1 1 1 0 0 0 0 0 0 0 0 1 1 1 1 2 3 3 3 3 3 4 4 4 4 3 3 3 2 2 2 1 1 1 0 0 -0
2 1 1 1 1 1 1 1 0 0 -0 -0 -1 -1 -1 -1 -1 -1 -0 -0 0 0 1 1 2 2 2 3 3 3 3 3 3 3 3 2 2 2 1 1 1 1 1 0
1 1 0 1 1 0 0 -0 -0 -1 -1 -1 -1 -1 -1 -1 -1 -1 -1 -1 -1 -1 -0 0 1 1 1 2 2 2 2 2 2 2 2 2 1 1 1 1 0 0 0 0
1 1 1 1 0 0 -0 -1 -1 -1 -2 -2 -2 -2 -2 -2 -2 -2 -2 -1 -1 -1 -1 -1 -0 0 1 1 1 1 2 2 2 2 2 1 1 1 1 1 0 0 0 0
1 1 0 0 -0 -1 -1 -1 -1 -2 -2 -2 -2 -2 -2 -2 -2 -2 -2 -2 -2 -2 -2 -1 -1 -0 -0 0 0 1 1 1 1 1 1 1 1 1 1 1 1 1 1 0
0 0 -0 -1 -1 -1 -1 -2 -2 -2 -2 -2 -2 -3 -3 -3 -3 -3 -3 -3 -3 -3 -2 -2 -2 -1 -1 -0 -0 0 0 0 0 1 1 1 1 1 1 0 0 0 0 0
0 -0 -0 -1 -1 -1 -2 -2 -2 -2 -2 -3 -3 -3 -3 -3 -3 -3 -3 -3 -3 -3 -3 -3 -2 -2 -1 -1 -1 -0 -0 -0 -0 0 0 0 0 0 0 0 0 0 0 0
-0 -0 -1 -1 -1 -2 -2 -2 -3 -3 -3 -3 -3 -3 -3 -4 -4 -4 -4 -4 -4 -3 -3 -3 -3 -2 -2 -2 -1 -1 -1 -1 -1 -0 -0 -0 -0 -0 -0 -0 -0 -0 0 0
-0 -0 -1 -1 -2 -2 -2 -2 -3 -3 -3 -3 -3 -3 -4 -4 -4 -4 -4 -4 -4 -4 -4 -3 -3 -3 -3 -2 -2 -2 -2 -1 -1 -1 -1 -1 -1 -1 -1 -0 -0 -0 -0 -0
-0 -1 -1 -1 -2 -2 -2 -2 -3 -3 -3 -3 -3 -4 -4 -4 -4 -4 -4 -4 -4 -4 -4 -4 -4 -4 -3 -3 -3 -3 -2 -2 -2 -1 -1 -1 -1 -1 -1 -1 -1 -1 -1 -1
-0 -1 -1 -1 -2 -2 -2 -2 -3 -3 -3 -3 -3 -4 -4 -4 -4 -4 -4 -4 -4 -5 -5 -5 -4 -4 -4 -4 -3 -3 -3 -3 -2 -2 -2 -2 -2 -2 -1 -1 -1 -1 -1 -1
-0 -1 -1 -2 -2 -2 -2 -3 -3 -3 -3 -3 -4 -4 -4 -4 -4 -5 -5 -5 -5 -5 -5 -5 -5 -5 -4 -4 -4 -4 -4 -3 -3 -3 -3 -2 -2 -2 -2 -2 -2 -2 -2 -2
-1 -1 -1 -2 -2 -2 -2 -3 -3 -3 -3 -3 -4 -4 -4 -4 -4 -5 -5 -5 -5 -5 -5 -5 -5 -5 -5 -5 -5 -4 -4 -4 -4 -3 -3 -3 -3 -3 -3 -3 -2 -2 -2 -2
-1 -1 -2 -2 -2 -2 -2 -3 -3 -3 -3 -4 -4 -4 -4 -5 -5 -5 -5 -5 -5 -5 -5 -6 -6 -6 -5 -5 -5 -5 -5 -4 -4 -4 -4 -4 -4 -4 -3 -3 -3 -3 -3 -3
-1 -2 -2 -2 -2 -3 -3 -3 -3 -3 -4 -4 -4 -4 -5 -5 -5 -5 -6 -6 -6 -6 -6 -6 -6 -6 -6 -6 -5 -5 -5 -5 -5 -4 -4 -4 -4 -4 -4 -4 -4 -4 -4 -4
-2 -2 -2 -3 -3 -3 -3 -3 -4 -4 -4 -4 -4 -4 -5 -5 -5 -6 -6 -6 -6 -6 -6 -6 -6 -6 -6 -6 -6 -6 -5 -5 -5 -5 -5 -5 -5 -5 -5 -5 -5 -5 -5 -5
-2 -3 -3 -3 -3 -4 -4 -4 -4 -4 -4 -4 -4 -5 -5 -5 -6 -6 -6 -6 -6 -6 -6 -6 -6 -6 -6 -6 -6 -6 -6 -6 -6 -6 -6 -6 -5 -5 -5 -5 -5 -5 -5 -5
-3 -3 -4 -4 -4 -4 -4 -5 -5 -5 -5 -5 -5 -5 -6 -6 -6 -6 -6 -6 -6 -6 -6 -6 -6 -6 -6 -6 -6 -6 -6 -6 -6 -6 -6 -6 -6 -6 -6 -6 -6 -6 -6 -6
Wind_Speed
1 1 2 3 3 5 5 6 6 4 3 2 1 2 2 3 4 5 5 5 4 4 4 4 3 4 5 5 6 7 8 8 8 7 7 7 7 6 6 6 6 6 5 4
2 2 1 1 2 4 4 4 5 3 2 1 2 4 5 5 5 5 5 6 6 5 5 5 5 5 5 6 7 7 9 8 8 8 7 7 7 7 6 5 5 5 5 5
1 2 3 3 4 4 3 1 4 5 4 0 2 4 4 4 5 5 6 6 7 7 6 6 6 6 7 7 7 8 9 8 8 9 8 8 7 7 6 6 5 5 5 5
1 2 2 5 3 2 5 4 3 3 2 2 1 3 5 5 5 6 7 8 8 7 8 7 6 6 6 5 8 9 9 9 9 9 9 8 7 7 6 5 5 4 5 5
2 2 3 3 2 1 3 2 5 3 3 4 2 2 1 5 6 5 6 7 7 7 8 8 7 5 4 5 7 9 9 10 10 10 10 9 8 8 6 5 5 4 4 6
2 2 5 3 3 3 4 1 3 3 4 5 4 0 3 7 8 8 8 7 7 8 7 7 7 4 3 5 7 9 10 9 9 10 10 10 9 7 5 5 5 5 5 5
3 3 5 3 5 2 3 3 2 2 3 3 2 3 6 9 8 8 8 8 8 7 7 7 6 3 3 4 7 7 6 7 8 9 9 9 8 6 6 6 6 5 5 5
4 4 5 2 3 2 2 2 2 2 3 3 4 6 7 8 8 9 9 9 8 7 8 7 5 3 4 5 5 4 6 7 8 8 8 7 8 7 7 7 7 6 6 5
4 3 0 3 4 3 3 2 1 2 4 4 6 7 8 8 8 8 9 9 8 7 8 7 6 4 5 5 3 4 6 7 7 8 8 8 9 9 8 8 7 7 6 6
1 1 2 3 4 3 3 1 2 2 4 5 6 8 9 9 9 9 9 9 8 8 8 8 7 6 5 5 4 5 7 7 7 8 8 8 8 8 8 8 8 7 8 7
2 2 2 1 1 1 2 2 3 4 4 5 7 8 8 9 9 9 9 9 9 8 9 9 8 7 6 4 4 5 6 7 8 8 8 8 8 8 9 9 9 9 8 7
4 4 4 3 2 1 1 3 4 5 6 6 6 8 9 8 8 8 9 9 9 9 9 10 9 8 7 5 4 6 6 7 7 7 7 7 7 7 11 11 14 16 14 11
3 2 3 3 2 1 2 4 5 6 7 7 7 7 8 9 8 8 9 9 10 10 10 10 9 8 7 5 5 6 7 6 6 7 7 8 7 8 7 9 14 16 17 17
3 2 1 2 2 3 4 5 5 6 6 6 7 7 8 9 9 10 10 10 10 10 10 9 9 8 6 5 5 6 6 7 7 7 7 8 8 8 7 7 7 7 12 18
3 2 3 3 3 4 4 5 6 7 7 7 7 7 8 9 10 11 11 10 10 10 10 10 10 8 6 5 5 6 6 5 6 6 7 7 7 7 7 8 7 6 5 8
2 1 2 3 5 6 6 6 7 8 8 8 8 9 9 9 10 11 10 9 9 10 10 10 10 8 6 5 6 5 5 7 6 5 6 6 7 7 7 8 8 7 8 7
3 3 4 5 6 7 7 7 7 8 8 9 9 9 9 10 10 10 10 9 9 10 9 9 9 8 6 6 5 5 4 5 6 5 5 6 6 7 7 7 7 8 8 8
5 5 5 6 6 7 8 7 7 8 8 9 9 9 9 9 10 11 11 10 9 9 8 7 8 7 6 6 5 4 4 4 4 5 5 5 6 6 7 7 8 8 6 7
4 5 5 6 6 6 7 8 8 8 8 8 8 9 9 10 10 10 10 9 9 9 8 6 9 7 6 6 6 4 4 4 4 4 4 6 6 5 6 6 7 7 6 6
5 5 6 6 6 6 7 8 8 8 8 7 8 9 9 9 9 9 8 8 7 7 7 8 8 6 6 6 6 4 4 4 4 3 3 4 4 5 5 5 5 5 5 5
6 6 7 7 7 8 8 7 7 9 9 7 8 9 10 10 9 7 7 8 7 6 7 9 6 5 5 5 6 4 4 3 3 3 3 3 3 3 3 4 4 4 4 4
6 6 7 7 7 8 8 7 7 8 9 8 8 8 9 9 8 7 7 7 7 9 7 5 5 6 7 6 3 3 3 3 3 3 2 2 3 3 3 3 3 3 3 3
6 6 7 7 8 8 8 7 7 7 8 8 8 8 8 8 6 6 8 5 5 8 6 5 7 9 8 4 3 3 3 3 2 2 2 2 2 2 2 2 2 2 2 2
6 6 7 7 6 7 9 8 7 7 7 8 8 8 7 7 6 5 6 9 10 10 5 7 9 9 6 2 2 2 2 2 2 2 2 1 1 1 1 2 2 2 2 2
6 6 6 7 7 7 8 8 8 7 7 6 7 7 6 5 6 6 5 6 8 8 5 6 8 7 4 2 2 2 2 2 2 1 1 1 1 1 1 1 2 2 2 2
5 5 6 6 6 6 6 6 6 6 6 7 6 5 5 5 5 6 5 5 6 7 5 4 4 4 2 2 2 2 2 2 2 1 1 1 1 1 1 1 2 2 2 2
6 5 5 6 5 5 5 5 6 6 6 6 8 6 5 5 5 5 5 4 4 4 3 3 3 3 2 2 2 2 2 2 2 2 2 1 2 2 2 2 2 2 2 2
Wind_Direction
226 233 174 201 204 179 173 175 174 193 190 229 118 68 50 46 48 44 28 13 354 331 310 293 272 245 219 203 185 169 163 166 169 161 152 146 146 146 145 148 150 148 143 144
3 5 74 343 262 198 197 192 195 183 230 291 78 80 59 44 39 26 3 348 337 327 319 302 274 254 231 211 194 176 175 177 166 158 155 155 153 151 150 150 150 152 155 155
293 345 38 302 267 213 182 190 189 206 214 183 81 78 70 49 34 7 342 335 332 320 303 292 278 253 235 219 193 183 183 177 169 164 163 164 160 159 162 163 162 163 164 162
130 74 221 258 323 131 123 53 34 92 72 46 99 131 108 70 33 360 340 332 323 316 308 298 285 269 242 211 191 188 185 180 175 170 169 165 165 171 170 165 169 169 172 170
143 189 264 290 352 68 129 69 8 64 45 15 344 126 126 30 9 342 323 314 306 301 296 295 292 279 244 211 193 190 192 188 181 175 172 171 177 178 172 166 170 172 172 172
152 189 232 247 313 326 108 133 7 54 40 10 21 52 280 344 341 334 328 321 316 315 308 304 300 286 235 218 202 205 201 191 179 174 175 180 180 173 166 166 175 173 178 183
183 226 258 283 313 20 163 226 85 50 29 13 357 260 294 318 323 322 319 316 318 319 317 309 306 291 252 234 224 218 193 177 175 177 178 176 170 165 164 166 170 179 186 194
176 207 248 337 45 123 164 79 65 21 357 332 304 301 308 313 315 319 320 321 323 322 318 316 313 295 271 257 244 198 178 178 179 176 174 170 168 171 172 175 183 191 196 205
192 206 90 53 97 84 81 76 13 333 324 320 313 311 312 311 311 313 315 317 319 317 315 315 313 295 277 275 239 192 183 185 181 175 174 171 176 180 182 188 196 199 201 212
149 167 130 101 97 74 59 40 326 313 313 315 307 309 312 312 314 316 316 315 315 313 311 311 312 303 280 272 233 199 195 190 181 179 180 180 184 187 193 197 202 204 206 215
188 154 115 145 124 37 8 359 335 318 305 304 305 306 307 309 309 312 314 315 314 309 305 304 308 304 289 271 230 213 205 196 189 189 187 192 197 202 203 207 206 206 209 209
209 194 188 224 226 248 310 305 304 307 304 301 297 298 303 302 302 304 308 312 313 311 307 305 304 300 291 269 234 218 215 206 200 195 195 197 200 211 218 216 222 223 220 215
177 174 190 223 235 253 283 290 294 295 295 301 304 303 303 302 303 304 305 309 309 308 305 302 299 296 292 276 247 233 228 216 205 201 200 200 202 207 217 223 228 230 230 228
152 127 195 221 253 285 288 291 292 293 292 291 297 301 301 302 304 304 303 304 305 304 301 298 295 293 294 288 261 246 238 224 214 210 206 205 206 208 210 212 217 226 229 229
173 180 221 256 277 292 298 301 301 298 297 296 296 299 302 303 302 301 301 302 302 301 299 298 293 290 294 287 274 257 244 233 222 217 212 210 206 206 209 212 219 221 215 226
201 234 260 274 285 292 296 295 292 292 294 294 297 297 297 297 296 297 299 300 301 300 302 300 294 292 288 280 275 269 257 243 230 222 213 211 208 208 211 214 217 220 222 219
179 248 260 273 280 285 286 284 283 287 290 290 292 294 296 298 298 300 301 298 293 292 294 295 296 297 288 273 267 267 267 257 238 229 220 215 213 214 214 215 218 222 226 217
206 224 233 248 265 279 287 287 285 288 289 289 293 295 294 294 295 298 299 300 297 294 292 292 295 298 291 281 267 263 261 259 247 235 228 222 221 218 218 219 220 224 226 221
228 240 251 259 262 266 272 279 282 283 284 288 289 289 289 288 290 292 295 295 296 297 297 297 304 303 295 291 285 263 257 258 256 247 235 235 232 224 222 223 224 224 220 214
247 254 261 267 268 263 269 276 280 282 281 280 284 289 291 290 291 293 293 288 282 279 287 294 297 292 289 289 289 269 257 254 257 257 245 237 233 228 224 224 223 221 218 217
259 265 269 272 276 275 270 273 278 280 284 281 278 281 286 290 291 291 293 294 292 288 291 296 296 290 287 290 290 277 265 257 256 252 247 243 241 234 226 223 223 223 221 220
258 264 269 273 277 282 282 276 273 276 283 283 280 280 285 290 292 291 279 276 288 299 303 291 289 291 297 298 283 280 273 266 263 259 252 248 244 241 235 228 225 224 221 220
260 263 267 270 272 279 287 283 276 275 277 279 282 284 283 283 286 288 293 288 287 298 302 292 301 302 303 301 285 282 281 278 273 269 265 259 253 244 238 237 233 230 227 226
267 268 270 273 277 281 284 285 282 277 274 275 274 275 279 286 288 271 268 292 302 303 298 301 310 312 315 313 293 286 287 289 285 283 284 280 267 253 244 242 240 239 237 237
272 273 275 278 280 277 276 285 291 287 284 282 279 276 270 263 272 287 287 287 297 303 300 306 314 320 324 310 301 297 294 291 288 293 291 285 279 269 258 249 243 241 243 244
277 277 275 270 270 276 281 283 285 289 291 293 293 285 279 276 275 280 284 285 287 298 300 299 306 311 309 304 303 304 306 314 325 329 311 300 294 289 280 274 266 256 252 251
289 284 286 290 286 278 278 277 281 288 291 290 295 296 292 289 289 288 286 286 288 289 290 293 294 293 293 296 301 305 307 309 308 303 301 296 295 293 292 287 281 275 268 262
Height
1476 1473 1474 1473 1473 1474 1478 1480 1484 1480 1479 1478 1477 1478 1477 1477 1477 1476 1476 1476 1475 1475 1474 1474 1473 1473 1473 1474 1474 1476 1477 1479 1481 1484 1486 1488 1489 1490 1491 1491 1490 1490 1490 1489
1477 1474 1473 1474 1472 1473 1475 1476 1477 1478 1479 1477 1477 1478 1478 1478 1477 1477 1476 1475 1474 1473 1472 1471 1470 1470 1470 1470 1471 1472 1474 1476 1478 1480 1482 1484 1485 1486 1486 1486 1486 1486 1485 1484
1483 1477 1476 1479 1475 1473 1474 1475 1475 1477 1479 1478 1478 1478 1479 1479 1478 1477 1476 1474 1473 1471 1470 1468 1467 1466 1466 1466 1467 1468 1470 1472 1474 1476 1478 1480 1481 1482 1482 1482 1482 1481 1481 1480
1485 1482 1486 1479 1473 1472 1475 1478 1477 1477 1478 1478 1478 1478 1479 1478 1477 1476 1474 1472 1470 1469 1467 1465 1464 1463 1462 1462 1463 1464 1466 1468 1470 1472 1474 1475 1476 1477 1478 1478 1478 1477 1477 1477
1486 1487 1483 1477 1474 1474 1476 1481 1480 1479 1479 1478 1477 1477 1477 1477 1476 1475 1473 1470 1468 1466 1464 1462 1460 1459 1458 1458 1459 1460 1461 1463 1465 1467 1469 1470 1472 1473 1473 1473 1473 1473 1473 1474
1485 1484 1483 1477 1474 1473 1476 1481 1482 1480 1480 1479 1477 1479 1478 1476 1473 1471 1470 1467 1465 1463 1460 1458 1456 1455 1454 1454 1454 1455 1457 1459 1461 1463 1464 1466 1467 1468 1468 1469 1469 1469 1470 1470
1484 1484 1480 1477 1474 1474 1482 1481 1482 1480 1480 1479 1479 1479 1477 1474 1471 1469 1467 1464 1462 1459 1456 1454 1452 1451 1450 1450 1450 1451 1453 1455 1456 1458 1459 1461 1462 1463 1464 1464 1465 1465 1466 1467
1485 1484 1484 1477 1475 1478 1480 1481 1481 1480 1480 1479 1478 1476 1473 1471 1469 1466 1463 1460 1458 1455 1453 1451 1449 1448 1446 1446 1447 1447 1448 1450 1451 1452 1454 1455 1456 1458 1459 1459 1460 1461 1462 1463
1481 1482 1480 1478 1478 1479 1479 1480 1480 1479 1478 1477 1475 1473 1471 1468 1465 1463 1460 1457 1454 1452 1449 1447 1446 1445 1443 1443 1443 1443 1444 1445 1446 1447 1448 1450 1451 1452 1453 1454 1455 1456 1458 1459
1479 1479 1479 1479 1479 1479 1479 1479 1479 1478 1476 1475 1473 1470 1468 1465 1462 1459 1457 1454 1451 1448 1446 1443 1442 1441 1440 1439 1439 1439 1439 1440 1441 1442 1443 1445 1446 1447 1448 1450 1451 1452 1453 1454
1478 1479 1479 1479 1479 1479 1478 1477 1476 1475 1474 1472 1469 1467 1464 1461 1459 1456 1453 1450 1447 1445 1442 1440 1438 1436 1436 1435 1434 1434 1434 1435 1436 1437 1438 1440 1441 1442 1443 1445 1447 1448 1449 1450
1477 1476 1477 1477 1477 1477 1476 1475 1473 1472 1469 1468 1466 1463 1460 1458 1455 1452 1449 1446 1443 1440 1438 1435 1433 1432 1431 1430 1429 1429 1429 1430 1431 1432 1433 1434 1436 1437 1438 1440 1442 1443 1444 1446
1474 1474 1475 1475 1475 1474 1473 1472 1470 1468 1466 1464 1461 1459 1457 1453 1451 1448 1445 1442 1439 1435 1433 1430 1428 1427 1426 1425 1424 1424 1424 1424 1425 1427 1428 1429 1430 1432 1433 1435 1436 1437 1439 1440
1473 1473 1473 1473 1473 1472 1470 1469 1467 1465 1463 1460 1458 1455 1452 1449 1446 1443 1440 1437 1434 1430 1428 1425 1423 1422 1421 1420 1419 1419 1419 1419 1420 1421 1422 1424 1425 1426 1428 1429 1430 1431 1433 1435
1471 1472 1472 1471 1470 1469 1467 1465 1463 1461 1459 1456 1453 1451 1448 1444 1441 1438 1435 1432 1429 1426 1423 1421 1418 1417 1416 1415 1414 1413 1413 1413 1414 1415 1416 1418 1420 1421 1422 1424 1425 1426 1428 1429
1469 1469 1469 1468 1467 1465 1464 1461 1459 1457 1454 1452 1449 1446 1443 1440 1437 1433 1430 1427 1424 1421 1418 1416 1413 1412 1411 1410 1409 1408 1408 1408 1409 1410 1411 1412 1414 1415 1417 1418 1419 1420 1421 1423
1467 1466 1466 1465 1463 1461 1460 1458 1456 1453 1450 1447 1444 1442 1438 1435 1432 1428 1425 1422 1419 1416 1414 1411 1409 1407 1406 1405 1404 1403 1403 1403 1404 1405 1405 1406 1408 1409 1410 1412 1413 1414 1415 1417
1464 1464 1463 1462 1460 1458 1456 1454 1452 1449 1446 1443 1440 1437 1434 1431 1427 1424 1420 1417 1414 1411 1409 1407 1404 1402 1401 1400 1399 1398 1398 1398 1398 1399 1400 1401 1402 1403 1404 1405 1406 1408 1409 1410
1461 1461 1460 1458 1457 1455 1452 1450 1448 1445 1442 1439 1436 1433 1430 1427 1423 1420 1416 1413 1410 1407 1404 1402 1399 1397 1396 1395 1394 1393 1393 1393 1393 1394 1394 1395 1396 1397 1398 1399 1400 1401 1402 1403
1458 1458 1456 1455 1453 1451 1449 1446 1444 1441 1438 1435 1432 1429 1425 1422 1419 1415 1412 1409 1406 1403 1400 1397 1395 1393 1391 1390 1390 1389 1389 1389 1389 1389 1389 1390 1391 1392 1393 1393 1394 1395 1396 1397
1455 1454 1452 1451 1449 1447 1445 1442 1439 1436 1434 1431 1428 1424 1421 1418 1415 1411 1408 1404 1402 1399 1396 1393 1391 1389 1387 1386 1385 1385 1385 1384 1384 1385 1385 1385 1386 1386 1387 1388 1389 1389 1390 1391
1451 1450 1448 1447 1444 1442 1440 1438 1435 1432 1429 1426 1423 1420 1416 1413 1410 1407 1404 1401 1398 1395 1392 1390 1388 1386 1384 1383 1382 1381 1381 1381 1380 1380 1381 1381 1381 1381 1382 1383 1383 1384 1384 1385
1448 1446 1444 1442 1440 1438 1435 1433 1430 1427 1424 1422 1418 1415 1412 1409 1406 1403 1399 1397 1395 1392 1389 1387 1384 1383 1381 1380 1379 1378 1377 1377 1377 1377 1377 1377 1377 1377 1378 1378 1378 1379 1379 1379
1443 1442 1440 1438 1436 1433 1430 1428 1426 1423 1420 1417 1414 1411 1408 1404 1401 1399 1396 1393 1391 1388 1386 1383 1381 1380 1378 1377 1376 1375 1374 1374 1374 1373 1373 1373 1373 1373 1373 1373 1373 1374 1374 1374
1439 1437 1435 1433 1431 1428 1426 1423 1420 1418 1415 1412 1409 1407 1404 1401 1398 1395 1392 1389 1387 1385 1383 1380 1379 1377 1375 1374 1373 1372 1372 1371 1371 1370 1370 1370 1369 1369 1369 1369 1369 1369 1369 1369
1434 1432 1430 1428 1426 1423 1421 1418 1415 1412 1409 1406 1404 1402 1399 1396 1393 1391 1388 1386 1384 1382 1380 1378 1376 1374 1373 1372 1371 1370 1369 1368 1368 1367 1367 1366 1366 1366 1365 1365 1365 1365 1365 1365
1430 1427 1425 1423 1421 1418 1416 1413 1410 1407 1405 1402 1399 1397 1394 1392 1390 1387 1385 1383 1381 1379 1377 1375 1373 1372 1370 1369 1368 1368 1367 1366 1365 1364 1364 1363 1363 1362 1362 1361 1361 1361 1360 1360